sat.trackr.live / text

‹ back to catalog

STARLINK-36178

NORAD 67025 · 2025-293Y

PAYLOAD ACTIVE UNKNOWN

§ Identity

Operator
Country
US
Launch date
2025-12-10
Launch site
AFWTR
Launch vehicle
Mass (kg)
RCS (m²)

Purposes: comms

External: N2YO · Heavens-Above · Gunter

§ Orbital elements

Epoch: 2026-09-20T14:13:12.039744Z

Period
96.11 min
Inclination
70.0009°
Eccentricity
0.0003596
Mean motion
14.98334408 rev/d
Perigee alt
569.5 km
Apogee alt
574.5 km
Semi-major
6,950.2 km
B*
1.6077e-4
RAAN
322.9856°
Arg perigee
269.2326°
Mean anomaly
90.8421°
Rev number
4,408

§ Raw data

STARLINK-361781 67025U 25293Y   26263.59250046  .00001826  00000+0  16077-3 0  99912 67025  70.0009 322.9856 0003596 269.2326  90.8421 14.98334408 44080

JSON: /api/v1/satellites/67025 · /tle

For live sub-satellite position, see the globe view (requires WebGL).

§ Visibility from observer

Set your observer location to see the next 7 days of passes ≥ 10°. The values pass through the URL so the page stays shareable.

No JS? Fill the form by hand. The geolocation button needs JavaScript.